Wind_Speed
36 30 26 32 39 43 49 60 67 70 72 76 78 73 76 75 72 72 75 78 77 75 71 67 68 72 83 80 81 82 82 78 74 68 69 66 65 66 65 63 60 57 55 53
36 27 22 25 34 40 44 51 61 66 70 75 78 74 75 79 77 75 78 80 79 80 77 75 69 69 74 85 85 82 83 85 79 75 72 69 68 66 64 64 63 62 60 59
37 27 21 20 26 34 41 46 53 61 64 69 77 80 78 80 85 83 81 84 86 83 84 81 76 72 70 77 86 89 85 85 83 81 77 74 72 69 68 68 67 66 60 57
43 30 26 22 23 31 38 43 46 51 56 64 73 79 85 85 88 89 87 85 85 87 86 85 79 76 72 71 75 88 88 82 81 83 80 78 77 73 74 70 65 63 64 62
48 38 33 26 23 27 34 39 43 46 46 57 69 79 91 90 87 88 88 90 90 90 87 86 86 83 77 76 71 72 86 92 85 75 82 82 79 79 80 77 76 73 69 64
53 47 38 30 23 21 25 30 40 45 49 50 63 75 84 89 90 90 91 92 94 94 94 91 89 86 82 80 77 71 71 79 87 90 77 81 84 86 84 84 83 79 74 71
53 47 42 35 26 22 20 21 30 39 43 49 55 62 72 83 88 92 95 96 97 96 95 95 93 90 88 84 83 80 71 74 75 80 90 77 78 85 86 88 86 85 80 75
55 50 43 38 31 22 15 13 16 24 37 45 51 54 61 70 80 89 93 97 100 99 100 99 98 94 89 87 86 87 81 75 75 73 74 78 76 73 81 88 91 86 82 80
58 52 46 40 33 20 11 10 12 16 22 32 41 48 51 63 72 82 92 95 97 103 102 102 104 98 95 90 85 89 87 82 81 77 77 78 77 72 70 80 89 88 84 83
58 51 47 39 31 18 10 5 4 6 13 19 25 31 39 49 56 62 71 82 92 94 96 102 105 106 103 97 91 89 91 88 82 81 80 80 79 73 71 76 80 83 82 83
63 52 50 38 32 21 15 10 7 5 3 3 5 11 15 22 29 34 46 60 69 76 83 91 97 102 105 106 102 98 95 94 93 85 82 84 83 78 71 70 75 79 77 75
62 50 49 38 32 18 11 9 5 5 6 6 4 4 6 12 14 18 21 26 38 54 65 71 80 87 94 97 100 100 100 99 97 92 83 84 84 79 76 71 71 72 72 75
64 50 47 40 32 21 9 8 7 10 10 6 8 9 8 10 11 13 13 25 28 35 41 52 61 65 74 85 93 96 94 95 92 95 89 84 86 82 77 77 74 66 64 72
64 47 47 40 32 23 7 4 11 10 8 1 5 10 10 7 20 19 12 15 30 38 38 37 43 49 60 66 77 89 92 92 90 87 85 84 84 85 84 81 78 77 78 83
63 52 42 44 33 27 13 9 9 16 9 3 3 11 16 19 17 20 13 7 8 26 41 34 30 35 45 54 61 74 89 89 89 88 84 82 84 85 85 83 78 79 80 76
60 57 43 44 34 26 21 15 10 12 15 9 9 6 14 12 18 24 22 23 18 32 14 22 22 26 32 40 49 59 73 86 87 85 86 83 82 85 85 87 82 77 78 80
60 58 45 42 37 27 23 19 16 13 20 13 13 12 13 12 15 19 25 28 20 22 22 19 10 2 10 21 38 49 60 75 80 83 84 86 83 82 84 85 85 82 80 80
62 60 45 40 35 28 24 21 20 18 17 21 21 21 16 18 20 20 24 26 17 11 11 12 13 10 9 3 20 36 50 62 71 76 79 81 84 85 84 84 85 82 80 78
62 60 51 42 36 30 22 19 18 22 29 27 28 28 25 24 23 29 30 27 12 7 12 9 8 7 4 2 9 23 39 57 67 76 75 74 77 85 86 87 86 86 82 80
60 58 55 43 40 34 24 19 16 20 22 29 28 27 30 28 28 28 26 17 18 10 5 3 11 7 4 5 6 13 26 36 52 66 72 73 71 71 76 79 80 81 81 80
61 60 54 47 38 31 27 22 18 20 16 24 28 29 31 31 28 20 22 19 16 14 11 11 10 9 11 4 7 11 14 24 38 53 67 72 73 72 70 72 75 79 81 82
61 60 54 50 40 33 25 20 17 16 18 25 30 32 34 33 33 32 27 23 24 24 21 19 17 18 15 17 13 13 14 21 32 41 53 64 69 73 76 77 78 80 81 83
58 57 54 49 44 35 29 23 18 15 15 19 24 30 32 37 36 33 35 32 27 26 27 27 28 27 26 22 22 23 22 23 26 31 40 49 59 68 73 74 76 79 81 84
54 55 52 51 48 42 28 23 21 20 17 13 14 18 25 31 35 35 38 39 37 35 31 31 31 29 33 31 32 31 30 30 33 35 40 47 55 62 66 68 72 77 81 84
50 52 50 50 50 47 42 29 22 18 15 16 16 14 13 14 30 37 37 39 42 43 41 39 38 35 35 37 40 43 43 44 44 45 46 48 50 54 59 64 69 75 80 83
48 49 47 46 48 47 45 42 32 24 20 16 15 13 12 11 11 11 14 23 33 39 39 39 40 45 45 44 44 45 48 52 54 55 56 58 59 62 65 68 72 76 79 83
Wind_Direction
324 297 278 257 249 243 242 236 233 233 230 229 228 228 231 231 233 228 226 228 231 234 234 233 231 232 225 226 233 237 234 236 238 236 235 238 240 243 242 242 242 242 245 247
339 320 291 264 252 246 242 237 234 232 231 229 228 227 230 231 229 231 228 229 229 231 236 238 237 233 233 226 227 229 237 238 236 238 238 236 239 242 246 250 250 249 247 248
342 333 312 278 258 249 242 240 235 233 230 228 227 226 228 230 231 229 230 230 230 228 230 234 238 236 234 233 233 230 229 235 238 237 237 240 238 240 245 245 247 250 252 253
347 333 322 296 269 254 247 241 239 231 229 226 225 225 227 229 230 232 232 232 233 232 230 232 236 239 239 236 234 236 232 228 236 240 240 239 239 237 244 245 248 250 253 253
349 342 338 326 300 272 253 242 241 238 231 227 224 224 229 228 230 233 235 236 235 234 235 235 234 235 238 239 233 235 237 234 230 233 243 242 241 241 240 244 249 251 251 252
349 347 341 339 322 293 266 253 241 236 235 230 227 225 230 233 232 233 235 237 238 238 236 235 235 233 234 241 238 235 238 239 240 232 234 242 242 244 243 245 246 248 250 253
348 348 340 344 335 313 291 268 250 241 238 237 235 229 228 235 237 236 237 238 239 240 241 241 238 237 237 236 236 236 233 239 238 239 237 235 240 243 246 247 248 247 249 251
351 351 345 344 342 329 308 286 263 247 241 239 239 240 235 234 236 240 240 240 239 240 240 240 240 240 240 237 237 238 236 235 242 242 241 243 245 242 243 248 249 250 250 253
349 352 346 346 347 345 325 291 266 252 241 240 239 241 240 241 241 239 240 241 240 238 237 240 241 239 238 236 235 237 240 238 236 241 241 242 244 248 243 246 249 252 253 253
352 350 347 347 349 340 326 324 288 248 245 243 245 243 244 247 248 246 246 246 247 246 244 241 241 240 238 235 235 235 238 242 238 240 242 241 242 245 247 246 248 250 251 254
353 349 347 347 349 341 348 359 5 1 338 292 298 273 257 265 269 261 250 250 251 249 246 245 241 240 242 240 234 233 235 240 243 242 244 242 241 242 246 247 248 250 250 252
353 346 347 345 343 336 345 358 331 322 334 321 311 251 277 294 305 300 291 262 254 252 251 246 243 243 240 238 239 237 235 238 241 243 241 239 238 242 244 243 244 248 253 250
351 345 347 341 340 334 338 326 289 313 314 342 334 338 359 317 336 330 269 280 270 258 250 252 248 243 239 237 235 233 233 235 236 240 239 239 238 238 241 244 246 245 242 248
351 346 346 342 335 329 311 290 253 264 336 3 356 347 340 331 349 343 311 255 257 261 265 252 248 241 237 234 230 229 228 230 232 236 237 236 237 239 241 243 244 248 243 249
351 348 345 342 333 326 294 267 280 256 255 229 249 317 313 329 354 357 350 13 293 253 251 261 253 234 233 230 227 224 226 226 228 232 235 235 236 238 240 244 246 250 252 254
353 350 346 337 331 323 319 271 254 266 248 223 256 283 290 320 338 353 4 352 8 27 13 214 244 233 224 222 220 221 223 224 226 229 233 237 237 239 241 244 246 249 250 251
352 351 346 340 331 328 321 290 254 265 242 247 236 244 266 288 306 334 338 344 7 39 29 10 10 321 189 208 212 216 221 222 223 227 230 236 237 239 241 244 248 249 250 251
351 352 349 339 333 332 324 312 268 252 256 242 244 243 254 273 285 300 328 330 338 17 51 55 48 41 13 209 218 214 220 222 224 228 229 233 237 239 242 244 249 252 253 256
350 351 351 340 333 333 330 323 286 258 252 250 244 253 250 272 284 292 305 315 288 356 348 358 61 93 93 123 212 233 231 224 222 226 227 233 237 238 241 244 248 252 253 254
349 352 352 342 335 334 332 332 303 276 265 257 245 250 252 267 281 284 296 280 263 258 248 330 339 357 110 153 191 220 228 231 228 226 227 232 236 240 243 246 248 250 253 255
346 351 352 351 340 338 334 335 325 297 267 256 246 244 249 256 261 271 273 247 239 237 249 238 260 295 303 264 221 215 228 232 228 227 228 232 237 240 244 247 249 253 255 256
341 345 351 354 347 338 335 337 322 307 282 258 252 247 249 252 249 260 254 256 242 242 236 241 246 249 260 273 255 235 234 240 238 236 234 235 239 243 246 250 252 256 259 260
334 340 345 354 357 348 342 333 334 318 295 283 279 269 262 258 256 256 243 247 247 253 251 251 243 245 244 251 265 272 260 247 243 241 243 245 246 247 249 252 256 257 261 263
328 334 340 347 352 0 349 350 342 331 328 310 280 280 286 271 255 248 243 244 250 253 248 253 252 248 243 243 245 245 248 257 262 255 247 247 249 251 253 256 259 261 262 264
322 328 337 343 346 353 1 354 355 1 351 339 331 318 302 296 271 263 258 256 256 258 253 253 258 260 255 248 244 243 246 246 245 245 247 249 251 253 255 256 257 259 260 262
318 321 330 336 342 347 351 353 352 354 6 18 15 6 357 338 321 306 289 275 272 270 270 268 265 263 266 266 266 262 257 254 252 251 253 253 255 255 254 255 257 258 259 260
Height
10515 10509 10505 10504 10505 10507 10510 10515 10522 10528 10538 10550 10560 10570 10576 10586 10597 10604 10608 10615 10621 10625 10631 10638 10646 10653 10665 10674 10679 10688 10695 10700 10709 10718 10724 10731 10735 10740 10743 10746 10752 10758 10761 10763
10505 10498 10494 10492 10493 10494 10497 10501 10505 10513 10522 10531 10545 10559 10560 10567 10576 10582 10591 10597 10601 10609 10616 10623 10633 10641 10650 10657 10661 10672 10678 10686 10695 10704 10709 10717 10724 10728 10734 10739 10741 10745 10748 10751
10498 10492 10487 10483 10482 10483 10484 10485 10491 10496 10504 10516 10525 10536 10544 10546 10551 10560 10567 10573 10582 10590 10598 10605 10615 10625 10632 10643 10647 10653 10663 10669 10678 10686 10696 10705 10712 10717 10720 10721 10726 10732 10739 10743
10493 10485 10480 10475 10472 10472 10471 10474 10477 10483 10489 10499 10508 10520 10519 10525 10530 10539 10550 10558 10566 10573 10582 10591 10605 10612 10619 10628 10635 10640 10650 10662 10665 10673 10683 10691 10697 10705 10705 10712 10716 10722 10727 10731
10485 10477 10472 10466 10463 10461 10460 10463 10467 10471 10477 10483 10494 10502 10492 10504 10518 10527 10534 10541 10548 10556 10568 10578 10587 10597 10604 10609 10622 10628 10636 10648 10656 10663 10669 10678 10686 10689 10691 10697 10702 10708 10713 10718
10479 10469 10462 10458 10454 10452 10450 10453 10456 10459 10465 10473 10476 10483 10486 10495 10504 10511 10516 10522 10529 10537 10547 10558 10568 10580 10590 10597 10608 10621 10628 10633 10639 10650 10656 10662 10671 10671 10680 10683 10688 10694 10700 10706
10476 10467 10456 10450 10447 10444 10442 10444 10446 10452 10458 10461 10464 10472 10481 10481 10488 10495 10500 10505 10512 10521 10532 10542 10552 10563 10574 10582 10588 10600 10613 10618 10623 10630 10638 10645 10650 10659 10665 10666 10673 10679 10685 10692
10471 10461 10452 10445 10441 10439 10437 10437 10438 10442 10446 10450 10453 10460 10465 10467 10469 10472 10477 10483 10491 10503 10510 10518 10527 10543 10557 10569 10576 10582 10594 10606 10609 10617 10623 10628 10634 10642 10650 10651 10653 10665 10672 10677
10467 10459 10448 10441 10437 10434 10431 10431 10432 10434 10435 10438 10443 10446 10452 10449 10449 10452 10454 10458 10465 10475 10486 10496 10504 10519 10532 10545 10560 10565 10574 10588 10596 10598 10606 10612 10619 10626 10631 10634 10638 10648 10656 10661
10468 10457 10448 10440 10435 10432 10429 10428 10429 10430 10430 10432 10433 10436 10437 10434 10434 10440 10444 10446 10448 10454 10466 10477 10483 10491 10506 10523 10539 10550 10554 10563 10578 10584 10590 10596 10604 10610 10616 10621 10625 10630 10640 10647
10465 10454 10446 10439 10434 10431 10429 10427 10427 10427 10427 10427 10428 10428 10427 10426 10425 10428 10430 10432 10432 10434 10440 10449 10456 10466 10478 10492 10514 10529 10537 10546 10554 10568 10575 10583 10590 10595 10602 10609 10611 10614 10621 10630
10464 10455 10445 10439 10433 10431 10429 10427 10427 10426 10426 10425 10425 10425 10423 10421 10420 10418 10415 10416 10416 10416 10417 10423 10428 10439 10452 10468 10486 10503 10518 10523 10535 10545 10557 10564 10571 10581 10588 10595 10598 10601 10607 10612
10462 10453 10444 10436 10432 10429 10427 10427 10427 10425 10425 10424 10422 10421 10421 10420 10418 10415 10411 10405 10404 10401 10402 10401 10407 10418 10427 10442 10459 10475 10494 10503 10515 10524 10537 10548 10557 10565 10570 10576 10583 10589 10591 10589
10461 10451 10442 10435 10430 10427 10425 10425 10425 10425 10424 10423 10422 10419 10418 10418 10416 10413 10409 10403 10397 10393 10391 10391 10392 10398 10406 10417 10431 10451 10466 10479 10495 10505 10516 10531 10540 10549 10554 10560 10567 10572 10576 10577
10460 10449 10441 10434 10428 10424 10423 10422 10422 10422 10422 10421 10421 10419 10416 10414 10414 10414 10406 10398 10392 10386 10383 10384 10383 10386 10392 10403 10415 10429 10445 10462 10474 10489 10502 10513 10524 10532 10539 10545 10551 10556 10560 10562
10461 10449 10438 10432 10426 10420 10418 10417 10418 10418 10419 10418 10419 10419 10417 10414 10412 10409 10406 10398 10390 10382 10377 10378 10379 10381 10385 10394 10405 10417 10432 10447 10462 10476 10486 10497 10507 10516 10523 10528 10534 10539 10542 10545
10460 10448 10435 10429 10423 10418 10415 10413 10413 10414 10415 10416 10416 10417 10417 10414 10411 10408 10405 10400 10395 10390 10386 10382 10382 10383 10386 10392 10400 10410 10422 10434 10448 10461 10472 10482 10492 10500 10505 10511 10516 10521 10524 10527
10459 10448 10436 10427 10420 10415 10411 10409 10407 10408 10411 10413 10413 10413 10413 10412 10410 10407 10406 10403 10398 10394 10393 10391 10391 10391 10392 10396 10400 10406 10415 10426 10442 10452 10459 10469 10478 10485 10491 10497 10501 10504 10508 10510
10458 10447 10435 10427 10419 10413 10408 10405 10402 10402 10404 10405 10407 10409 10410 10409 10409 10406 10405 10404 10399 10397 10395 10393 10393 10393 10395 10397 10401 10405 10410 10415 10427 10434 10446 10455 10463 10469 10476 10481 10485 10487 10489 10491
10457 10447 10435 10427 10418 10411 10405 10401 10399 10398 10399 10399 10400 10403 10404 10405 10405 10404 10402 10402 10399 10397 10397 10398 10395 10394 10394 10394 10398 10401 10405 10410 10417 10426 10434 10442 10449 10455 10460 10464 10467 10469 10470 10472
10454 10447 10436 10426 10419 10412 10404 10399 10397 10395 10396 10393 10395 10396 10397 10399 10400 10399 10399 10399 10397 10396 10396 10396 10396 10396 10394 10395 10396 10397 10399 10403 10409 10415 10422 10429 10434 10440 10444 10447 10450 10451 10450 10452
10452 10445 10439 10429 10419 10413 10406 10400 10396 10394 10392 10390 10390 10390 10390 10390 10393 10395 10395 10395 10394 10394 10393 10394 10394 10394 10394 10394 10395 10396 10398 10401 10404 10408 10413 10418 10423 10427 10430 10432 10434 10434 10435 10436
10449 10444 10438 10431 10421 10412 10406 10401 10396 10392 10389 10387 10385 10384 10383 10383 10385 10386 10387 10388 10389 10390 10390 10390 10389 10389 10391 10392 10393 10394 10396 10397 10399 10402 10405 10408 10411 10413 10415 10417 10418 10417 10416 10415
10447 10442 10436 10430 10423 10415 10408 10402 10396 10391 10387 10384 10382 10380 10379 10377 10377 10379 10380 10381 10382 10382 10382 10383 10384 10384 10385 10386 10388 10389 10390 10391 10392 10394 10394 10394 10396 10398 10399 10400 10398 10397 10395 10392
10445 10440 10434 10429 10422 10415 10410 10404 10399 10392 10386 10382 10378 10376 10374 10373 10373 10373 10373 10373 10374 10374 10375 10376 10377 10378 10380 10381 10380 10380 10381 10382 10382 10380 10380 10381 10382 10382 10381 10380 10378 10376 10373 10371
10443 10440 10435 10429 10422 10415 10408 10402 10397 10393 10388 10383 10379 10376 10373 10371 10369 10369 10369 10369 10369 10369 10369 10370 10372 10372 10372 10373 10374 10374 10373 10373 10372 10372 10371 10370 10369 10367 10365 10363 10358 10355 10351 10348